Location: Essen
(51.4609°N, 7.0127°E)
Time: 06:56:33
(UTC+01:00)

Tiangong 1 - Visible Passes

Search period start: 25 November 2017 00:00
Search period end: 05 December 2017 00:00
Orbit: 283 x 307 km, 42.8° (Epoch: 24 November)

Date Brightness Start Highest point End Pass type
(mag) Time Alt. Az. Time Alt. Az. Time Alt. Az.
29 Nov 3.3 18:12:02 10° S 18:12:56 11° S 18:13:34 11° SSE visible
30 Nov 3.2 18:17:14 10° SSW 18:18:27 13° S 18:19:03 12° SSE visible
01 Dec 3.3 18:22:36 10° SSW 18:23:51 13° S 18:24:26 12° SSE visible
02 Dec 3.5 18:28:09 10° SSW 18:29:06 11° S 18:29:44 11° S visible
04 Dec 3.5 17:03:58 10° SSW 17:05:13 13° S 17:06:27 10° SSE visible
